| time (UTC) | temp F | wind direction | speed knots | gust knots | rain 1hr in | rain 24hr in | rain mn in | humidity % | barometer mb |
| 20260507185817 | 63 | 109 | 1.7 | 3.5 | 0.00 | 0.04 | 0.01 | 83 | 1012.0 |
| 20260507185321 | 63 | 117 | 0.0 | 0.0 | 0.00 | 0.04 | 0.01 | 82 | 1012.0 |
| 20260507184830 | 63 | 121 | 0.0 | 0.0 | 0.00 | 0.04 | 0.01 | 81 | 1011.7 |
| 20260507184319 | 63 | 121 | 0.0 | 3.5 | 0.00 | 0.04 | 0.01 | 81 | 1011.7 |
| 20260507183928 | 64 | 121 | 0.0 | 3.5 | 0.00 | 0.04 | 0.01 | 81 | 1011.7 |
| 20260507183352 | 64 | 121 | 0.9 | 6.1 | 0.00 | 0.04 | 0.01 | 80 | 1011.6 |
| 20260507182832 | 64 | 121 | 0.0 | 6.1 | 0.00 | 0.04 | 0.01 | 80 | 1011.6 |
| 20260507182352 | 64 | 119 | 2.6 | 6.1 | 0.00 | 0.04 | 0.01 | 79 | 1011.6 |
| 20260507181822 | 64 | 116 | 2.6 | 6.1 | 0.00 | 0.04 | 0.01 | 79 | 1011.4 |
| 20260507181323 | 64 | 103 | 1.7 | 6.1 | 0.00 | 0.04 | 0.01 | 78 | 1011.4 |
| 20260507180823 | 64 | 104 | 1.7 | 5.2 | 0.00 | 0.04 | 0.01 | 78 | 1011.4 |
| 20260507180345 | 65 | 106 | 1.7 | 7.0 | 0.00 | 0.04 | 0.01 | 77 | 1011.1 |
| 20260507175911 | 65 | 106 | 5.2 | 7.8 | 0.00 | 0.04 | 0.01 | 77 | 1011.1 |
| 20260507175329 | 65 | 111 | 1.7 | 7.8 | 0.00 | 0.04 | 0.01 | 77 | 1011.1 |
| 20260507174909 | 65 | 117 | 2.6 | 7.8 | 0.00 | 0.04 | 0.01 | 77 | 1011.0 |
| 20260507174411 | 65 | 112 | 1.7 | 7.0 | 0.00 | 0.04 | 0.01 | 77 | 1011.0 |
| 20260507173816 | 65 | 96 | 1.7 | 7.0 | 0.00 | 0.04 | 0.01 | 77 | 1011.0 |
| 20260507173319 | 65 | 97 | 2.6 | 7.0 | 0.00 | 0.04 | 0.01 | 77 | 1010.8 |
| 20260507172822 | 65 | 111 | 2.6 | 6.1 | 0.00 | 0.04 | 0.01 | 76 | 1010.8 |
| 20260507172325 | 65 | 96 | 0.9 | 5.2 | 0.00 | 0.04 | 0.01 | 76 | 1010.8 |
| 20260507171830 | 66 | 94 | 1.7 | 4.3 | 0.00 | 0.04 | 0.01 | 76 | 1010.8 |
| 20260507171331 | 66 | 94 | 0.9 | 5.2 | 0.00 | 0.04 | 0.01 | 76 | 1010.8 |
| 20260507170837 | 66 | 94 | 1.7 | 7.8 | 0.00 | 0.04 | 0.01 | 76 | 1010.8 |
| 20260507170418 | 66 | 94 | 2.6 | 7.8 | 0.00 | 0.04 | 0.01 | 76 | 1010.9 |
| 20260507165857 | 66 | 116 | 3.5 | 7.8 | 0.00 | 0.04 | 0.01 | 75 | 1010.9 |
| 20260507165322 | 66 | 92 | 2.6 | 7.0 | 0.00 | 0.04 | 0.01 | 74 | 1010.9 |
| 20260507164843 | 67 | 103 | 4.3 | 7.0 | 0.00 | 0.04 | 0.01 | 73 | 1011.0 |
| 20260507164438 | 67 | 115 | 3.5 | 7.8 | 0.00 | 0.04 | 0.01 | 74 | 1011.0 |
| 20260507163838 | 67 | 90 | 4.3 | 7.0 | 0.00 | 0.04 | 0.01 | 74 | 1011.0 |
| 20260507163404 | 67 | 84 | 2.6 | 7.8 | 0.00 | 0.04 | 0.01 | 75 | 1011.0 |
| 20260507162847 | 67 | 100 | 4.3 | 7.8 | 0.00 | 0.04 | 0.01 | 74 | 1011.0 |
| 20260507162326 | 67 | 77 | 3.5 | 8.7 | 0.00 | 0.04 | 0.01 | 73 | 1011.0 |
| 20260507161850 | 67 | 91 | 5.2 | 9.6 | 0.00 | 0.04 | 0.01 | 72 | 1010.8 |
| 20260507161350 | 67 | 78 | 6.1 | 11.3 | 0.00 | 0.04 | 0.01 | 72 | 1010.8 |
| 20260507160835 | 67 | 150 | 6.1 | 11.3 | 0.00 | 0.04 | 0.01 | 72 | 1010.8 |
| 20260507160322 | 68 | 141 | 5.2 | 10.4 | 0.00 | 0.04 | 0.01 | 74 | 1010.6 |
| 20260507155902 | 68 | 103 | 5.2 | 9.6 | 0.00 | 0.04 | 0.01 | 74 | 1010.6 |
| 20260507155323 | 68 | 121 | 5.2 | 10.4 | 0.00 | 0.04 | 0.01 | 74 | 1010.6 |
| 20260507154436 | 67 | 108 | 3.5 | 7.0 | 0.00 | 0.04 | 0.01 | 75 | 1010.6 |
| 20260507153914 | 67 | 94 | 2.6 | 6.1 | 0.00 | 0.04 | 0.01 | 73 | 1010.6 |
| 20260507153315 | 67 | 81 | 2.6 | 7.0 | 0.00 | 0.04 | 0.01 | 70 | 1010.6 |
| 20260507152849 | 67 | 78 | 3.5 | 8.7 | 0.00 | 0.04 | 0.01 | 69 | 1010.6 |
| 20260507152329 | 67 | 101 | 3.5 | 8.7 | 0.00 | 0.04 | 0.01 | 67 | 1010.6 |
| 20260507151833 | 67 | 86 | 4.3 | 8.7 | 0.00 | 0.04 | 0.01 | 68 | 1010.5 |
| 20260507150847 | 67 | 94 | 3.5 | 7.0 | 0.00 | 0.04 | 0.01 | 71 | 1010.5 |
| 20260507150356 | 68 | 136 | 4.3 | 6.1 | 0.00 | 0.12 | 0.01 | 72 | 1010.5 |
| 20260507145903 | 68 | 90 | 0.0 | 4.3 | 0.00 | 0.12 | 0.01 | 70 | 1010.5 |
| 20260507145327 | 68 | 86 | 1.7 | 4.3 | 0.00 | 0.12 | 0.01 | 70 | 1010.5 |
| 20260507144851 | 69 | 80 | 0.0 | 4.3 | 0.00 | 0.12 | 0.01 | 68 | 1010.3 |
| 20260507144317 | 69 | 80 | 3.5 | 4.3 | 0.00 | 0.12 | 0.01 | 66 | 1010.3 |
| 20260507143821 | 70 | 211 | 0.9 | 5.2 | 0.00 | 0.12 | 0.01 | 68 | 1010.3 |
| 20260507143344 | 70 | 212 | 0.0 | 4.3 | 0.00 | 0.12 | 0.01 | 68 | 1010.0 |
| 20260507142830 | 70 | 212 | 0.9 | 4.3 | 0.00 | 0.12 | 0.01 | 67 | 1010.0 |
| 20260507141824 | 71 | 195 | 2.6 | 7.8 | 0.00 | 0.12 | 0.01 | 65 | 1010.0 |
| 20260507141345 | 71 | 176 | 1.7 | 9.6 | 0.00 | 0.12 | 0.01 | 64 | 1010.0 |
| 20260507140831 | 72 | 169 | 6.1 | 12.2 | 0.00 | 0.12 | 0.01 | 63 | 1010.0 |
| 20260507140341 | 73 | 154 | 6.1 | 14.8 | 0.00 | 0.75 | 0.01 | 62 | 1010.1 |
| 20260507135904 | 73 | 223 | 8.7 | 14.8 | 0.00 | 0.75 | 0.01 | 58 | 1010.1 |
| 20260507135345 | 74 | 194 | 5.2 | 11.3 | 0.00 | 0.75 | 0.01 | 57 | 1010.1 |
| 20260507134828 | 74 | 196 | 5.2 | 8.7 | 0.00 | 0.75 | 0.01 | 56 | 1010.1 |
| 20260507134418 | 73 | 142 | 0.0 | 0.0 | 0.00 | 0.75 | 0.01 | 56 | 1010.1 |
| 20260507133841 | 73 | 140 | 0.0 | 6.1 | 0.00 | 0.75 | 0.01 | 61 | 1010.1 |
| 20260507133419 | 73 | 140 | 2.6 | 6.1 | 0.00 | 0.75 | 0.01 | 61 | 1010.2 |
| 20260507132834 | 73 | 167 | 0.0 | 7.0 | 0.00 | 0.75 | 0.01 | 61 | 1010.2 |
| 20260507132317 | 73 | 190 | 1.7 | 7.0 | 0.00 | 0.75 | 0.01 | 58 | 1010.2 |
| 20260507131820 | 72 | 232 | 0.9 | 5.2 | 0.00 | 0.75 | 0.01 | 58 | 1010.2 |
| 20260507131350 | 72 | 245 | 2.6 | 7.8 | 0.00 | 0.75 | 0.01 | 60 | 1010.2 |
| 20260507130854 | 72 | 153 | 3.5 | 6.1 | 0.00 | 0.75 | 0.01 | 63 | 1010.2 |
| 20260507130335 | 71 | 164 | 1.7 | 9.6 | 0.00 | 0.75 | 0.01 | 62 | 1010.3 |
| 20260507125837 | 72 | 170 | 4.3 | 9.6 | 0.00 | 0.75 | 0.01 | 60 | 1010.3 |
| 20260507125400 | 72 | 172 | 4.3 | 7.8 | 0.00 | 0.75 | 0.01 | 58 | 1010.3 |
| 20260507124856 | 73 | 179 | 3.5 | 7.8 | 0.00 | 0.75 | 0.01 | 60 | 1010.2 |
| 20260507124813 | 73 | 179 | 3.5 | 7.8 | 0.00 | 0.75 | 0.01 | 60 | 1010.2 |
| 20260507124318 | 73 | 160 | 2.6 | 7.8 | 0.00 | 0.75 | 0.01 | 59 | 1010.2 |
| 20260507123824 | 74 | 170 | 1.7 | 7.8 | 0.00 | 0.75 | 0.01 | 57 | 1010.2 |
| 20260507123405 | 75 | 178 | 1.7 | 5.2 | 0.00 | 0.75 | 0.01 | 57 | 1010.4 |
| 20260507122906 | 74 | 175 | 1.7 | 6.1 | 0.00 | 0.75 | 0.01 | 59 | 1010.4 |
| 20260507121820 | 73 | 229 | 2.6 | 6.1 | 0.00 | 0.75 | 0.01 | 61 | 1010.5 |
| 20260507121345 | 73 | 178 | 1.7 | 5.2 | 0.00 | 0.75 | 0.01 | 61 | 1010.5 |
| 20260507120905 | 73 | 163 | 3.5 | 6.1 | 0.00 | 0.75 | 0.01 | 60 | 1010.5 |
| 20260507120325 | 73 | 181 | 1.7 | 8.7 | 0.00 | 0.75 | 0.01 | 62 | 1010.5 |
| 20260507115926 | 73 | 200 | 4.3 | 8.7 | 0.00 | 0.75 | 0.01 | 60 | 1010.5 |
| 20260507115405 | 73 | 174 | 2.6 | 8.7 | 0.00 | 0.75 | 0.01 | 59 | 1010.5 |
| 20260507114853 | 73 | 198 | 4.3 | 8.7 | 0.00 | 0.75 | 0.01 | 59 | 1010.5 |
| 20260507114337 | 73 | 215 | 5.2 | 7.8 | 0.00 | 0.75 | 0.01 | 57 | 1010.5 |
| 20260507113840 | 73 | 206 | 1.7 | 7.0 | 0.00 | 0.75 | 0.01 | 59 | 1010.5 |
| 20260507112833 | 73 | 303 | 0.0 | 0.0 | 0.00 | 0.75 | 0.01 | 58 | 1010.7 |
| 20260507112414 | 73 | 304 | 0.0 | 0.0 | 0.00 | 0.75 | 0.01 | 58 | 1010.7 |
| 20260507111835 | 72 | 308 | 0.0 | 5.2 | 0.00 | 0.75 | 0.01 | 58 | 1010.8 |
| 20260507111341 | 72 | 317 | 0.0 | 5.2 | 0.00 | 0.75 | 0.01 | 58 | 1010.8 |
| 20260507110824 | 72 | 286 | 0.0 | 7.0 | 0.00 | 0.75 | 0.01 | 58 | 1010.8 |
| 20260507110345 | 72 | 298 | 4.3 | 7.0 | 0.00 | 0.83 | 0.01 | 55 | 1011.0 |
| 20260507105827 | 72 | 210 | 1.7 | 6.1 | 0.00 | 0.83 | 0.01 | 58 | 1011.0 |
| 20260507105333 | 71 | 203 | 3.5 | 6.1 | 0.00 | 0.83 | 0.01 | 57 | 1011.0 |
| 20260507104914 | 71 | 282 | 2.6 | 7.0 | 0.00 | 0.83 | 0.01 | 55 | 1011.1 |
| 20260507104416 | 72 | 230 | 0.9 | 7.0 | 0.00 | 0.83 | 0.01 | 56 | 1011.1 |
| 20260507103833 | 72 | 228 | 2.6 | 7.0 | 0.00 | 0.83 | 0.01 | 56 | 1011.1 |
| 20260507103355 | 72 | 175 | 3.5 | 7.0 | 0.00 | 0.83 | 0.01 | 52 | 1011.1 |
| 20260507102833 | 71 | 190 | 2.6 | 7.0 | 0.00 | 0.83 | 0.01 | 58 | 1011.1 |
| 20260507102316 | 71 | 203 | 3.5 | 7.0 | 0.00 | 0.83 | 0.01 | 57 | 1011.1 |
| 20260507101817 | 71 | 252 | 4.3 | 6.1 | 0.00 | 0.83 | 0.01 | 57 | 1011.2 |
| 20260507101340 | 72 | 224 | 1.7 | 6.1 | 0.00 | 0.83 | 0.01 | 59 | 1011.2 |
| 20260507100837 | 71 | 210 | 0.9 | 6.1 | 0.00 | 0.83 | 0.01 | 59 | 1011.2 |
| 20260507100342 | 70 | 237 | 1.7 | 7.0 | 0.00 | 0.87 | 0.01 | 60 | 1011.2 |
| 20260507095823 | 71 | 282 | 5.2 | 7.0 | 0.00 | 0.87 | 0.01 | 60 | 1011.2 |
| 20260507095411 | 71 | 249 | 1.7 | 7.0 | 0.00 | 0.87 | 0.01 | 60 | 1011.2 |
| 20260507094839 | 70 | 242 | 1.7 | 5.2 | 0.00 | 0.87 | 0.01 | 61 | 1011.2 |
| 20260507094319 | 70 | 253 | 0.0 | 6.1 | 0.00 | 0.87 | 0.01 | 61 | 1011.2 |
| 20260507093846 | 70 | 273 | 3.5 | 7.0 | 0.00 | 0.87 | 0.01 | 60 | 1011.2 |
| 20260507092841 | 69 | 263 | 3.5 | 7.0 | 0.00 | 0.87 | 0.01 | 63 | 1011.1 |
| 20260507092342 | 70 | 263 | 0.0 | 6.1 | 0.00 | 0.87 | 0.01 | 64 | 1011.1 |
| 20260507091905 | 70 | 263 | 2.6 | 6.1 | 0.00 | 0.87 | 0.01 | 65 | 1011.2 |
| 20260507091406 | 69 | 270 | 0.9 | 5.2 | 0.00 | 0.87 | 0.01 | 64 | 1011.2 |
| 20260507090905 | 68 | 273 | 0.0 | 3.5 | 0.00 | 0.87 | 0.01 | 64 | 1011.2 |
| 20260507090347 | 68 | 273 | 0.0 | 3.5 | 0.00 | 0.91 | 0.01 | 67 | 1011.2 |
| 20260507085848 | 67 | 274 | 0.0 | 0.0 | 0.00 | 0.91 | 0.01 | 74 | 1011.2 |
| 20260507085327 | 67 | 274 | 0.0 | 4.3 | 0.00 | 0.91 | 0.01 | 74 | 1011.2 |
| 20260507084828 | 67 | 274 | 0.0 | 4.3 | 0.00 | 0.91 | 0.01 | 74 | 1011.1 |
| 20260507083843 | 67 | 281 | 2.6 | 5.2 | 0.00 | 0.91 | 0.01 | 71 | 1011.1 |
| 20260507083322 | 68 | 275 | 0.9 | 3.5 | 0.00 | 0.91 | 0.01 | 73 | 1011.1 |
| 20260507082843 | 67 | 279 | 2.6 | 6.1 | 0.00 | 0.91 | 0.01 | 73 | 1011.1 |
| 20260507082314 | 67 | 279 | 2.6 | 6.1 | 0.00 | 0.91 | 0.01 | 73 | 1011.1 |
| 20260507081838 | 67 | 281 | 1.7 | 5.2 | 0.00 | 0.91 | 0.01 | 76 | 1011.1 |
| 20260507081401 | 66 | 284 | 0.0 | 4.3 | 0.00 | 0.91 | 0.01 | 78 | 1011.1 |
| 20260507080900 | 66 | 284 | 0.0 | 6.1 | 0.00 | 0.91 | 0.01 | 77 | 1011.1 |
| 20260507080406 | 66 | 283 | 3.5 | 6.1 | 0.00 | 0.91 | 0.01 | 78 | 1011.0 |
| 20260507075906 | 66 | 67 | 0.0 | 4.3 | 0.00 | 0.91 | 0.01 | 80 | 1011.0 |
| 20260507075325 | 66 | 67 | 0.0 | 4.3 | 0.00 | 0.91 | 0.01 | 80 | 1011.0 |
| 20260507074828 | 67 | 76 | 0.0 | 3.5 | 0.00 | 0.91 | 0.01 | 82 | 1010.9 |
| 20260507074316 | 67 | 76 | 1.7 | 4.3 | 0.00 | 0.91 | 0.01 | 83 | 1010.9 |
| 20260507073838 | 66 | 78 | 1.7 | 4.3 | 0.00 | 0.91 | 0.01 | 84 | 1010.9 |
| 20260507073343 | 66 | 78 | 0.0 | 0.0 | 0.00 | 0.91 | 0.01 | 88 | 1010.8 |
| 20260507072845 | 65 | 78 | 0.0 | 0.0 | 0.00 | 0.91 | 0.01 | 89 | 1010.8 |
| 20260507072349 | 64 | 78 | 0.0 | 0.0 | 0.00 | 0.91 | 0.01 | 91 | 1010.8 |
| 20260507071320 | 63 | 78 | 0.0 | 0.0 | 0.00 | 0.91 | 0.01 | 92 | 1010.7 |
| 20260507070821 | 64 | 78 | 0.0 | 0.0 | 0.00 | 0.91 | 0.01 | 93 | 1010.7 |
| 20260507070326 | 63 | 78 | 0.0 | 0.0 | 0.00 | 0.91 | 0.01 | 94 | 1010.7 |
| 20260507065826 | 63 | 78 | 0.0 | 0.0 | 0.00 | 0.91 | 0.01 | 95 | 1010.7 |
| 20260507065327 | 62 | 78 | 0.0 | 0.0 | 0.00 | 0.91 | 0.01 | 95 | 1010.7 |
| 20260507064830 | 62 | 78 | 0.0 | 3.5 | 0.00 | 0.91 | 0.01 | 96 | 1010.6 |
| 20260507064311 | 61 | 78 | 0.0 | 3.5 | 0.00 | 0.91 | 0.01 | 96 | 1010.6 |
| 20260507063818 | 60 | 82 | 0.0 | 0.0 | 0.00 | 0.91 | 0.01 | 96 | 1010.6 |
| 20260507063322 | 60 | 82 | 0.0 | 0.0 | 0.00 | 0.91 | 0.01 | 96 | 1010.6 |
| 20260507062822 | 59 | 82 | 0.0 | 0.0 | 0.00 | 0.91 | 0.01 | 96 | 1010.6 |
| 20260507062346 | 60 | 82 | 0.0 | 0.0 | 0.00 | 0.91 | 0.01 | 96 | 1010.6 |
| 20260507061826 | 59 | 82 | 0.0 | 0.0 | 0.00 | 0.91 | 0.01 | 96 | 1010.6 |
| 20260507061350 | 59 | 82 | 0.0 | 0.0 | 0.00 | 0.91 | 0.01 | 96 | 1010.6 |
| 20260507060820 | 59 | 82 | 0.0 | 0.0 | 0.00 | 0.91 | 0.01 | 96 | 1010.6 |
| 20260507060410 | 59 | 82 | 0.0 | 0.0 | 0.00 | 0.94 | 0.01 | 96 | 1010.6 |
| 20260507055838 | 59 | 82 | 0.0 | 0.0 | 0.00 | 0.94 | 0.01 | 96 | 1010.6 |
| 20260507055326 | 59 | 82 | 0.0 | 0.0 | 0.00 | 0.94 | 0.01 | 96 | 1010.6 |
| 20260507054853 | 59 | 82 | 0.0 | 0.0 | 0.00 | 0.94 | 0.01 | 96 | 1010.4 |
| 20260507054332 | 59 | 82 | 0.0 | 0.0 | 0.00 | 0.94 | 0.01 | 96 | 1010.4 |
| 20260507053815 | 59 | 82 | 0.0 | 0.0 | 0.00 | 0.94 | 0.01 | 96 | 1010.4 |
| 20260507053406 | 59 | 82 | 0.0 | 0.0 | 0.00 | 0.94 | 0.01 | 96 | 1010.1 |
| 20260507052825 | 59 | 82 | 0.0 | 0.0 | 0.00 | 0.94 | 0.01 | 96 | 1010.1 |
| 20260507052325 | 59 | 82 | 0.0 | 0.0 | 0.00 | 0.94 | 0.01 | 96 | 1010.1 |
| 20260507051343 | 58 | 89 | 0.0 | 0.0 | 0.00 | 0.94 | 0.01 | 96 | 1010.1 |
| 20260507050812 | 58 | 89 | 0.0 | 0.0 | 0.00 | 0.94 | 0.01 | 96 | 1010.1 |
| 20260507050341 | 58 | 89 | 0.0 | 0.0 | 0.00 | 0.98 | 0.01 | 96 | 1009.9 |
| 20260507045847 | 58 | 89 | 0.0 | 0.0 | 0.00 | 0.98 | 0.01 | 96 | 1009.9 |
| 20260507045330 | 58 | 89 | 0.0 | 0.0 | 0.00 | 0.98 | 0.01 | 96 | 1009.9 |
| 20260507044910 | 58 | 89 | 0.0 | 0.0 | 0.00 | 0.98 | 0.01 | 96 | 1009.6 |
| 20260507044352 | 58 | 89 | 0.0 | 0.0 | 0.00 | 0.98 | 0.01 | 96 | 1009.6 |
| 20260507043816 | 58 | 89 | 0.0 | 0.0 | 0.00 | 0.98 | 0.01 | 96 | 1009.6 |
| 20260507043316 | 58 | 89 | 0.0 | 0.0 | 0.00 | 0.98 | 0.01 | 96 | 1009.5 |
| 20260507042346 | 58 | 89 | 0.0 | 0.0 | 0.00 | 0.98 | 0.01 | 96 | 1009.5 |
| 20260507041812 | 58 | 89 | 0.0 | 0.0 | 0.00 | 0.98 | 0.01 | 96 | 1009.2 |
| 20260507041339 | 58 | 89 | 0.0 | 0.0 | 0.00 | 0.98 | 0.01 | 96 | 1009.2 |
| 20260507040924 | 58 | 89 | 0.0 | 0.0 | 0.00 | 0.98 | 0.01 | 96 | 1009.2 |
| 20260507040408 | 58 | 89 | 0.0 | 0.0 | 0.00 | 0.98 | 0.01 | 96 | 1009.1 |
| 20260507035906 | 58 | 89 | 0.0 | 0.0 | 0.00 | 0.98 | 0.01 | 96 | 1009.1 |
| 20260507035327 | 58 | 89 | 0.0 | 0.0 | 0.04 | 0.98 | 0.01 | 96 | 1009.1 |
| 20260507034914 | 58 | 89 | 0.0 | 0.0 | 0.04 | 0.98 | 0.01 | 96 | 1009.1 |
| 20260507034354 | 58 | 89 | 0.0 | 0.0 | 0.04 | 0.98 | 0.01 | 96 | 1009.1 |
| 20260507033934 | 58 | 89 | 0.0 | 0.0 | 0.04 | 0.98 | 0.01 | 96 | 1009.1 |
| 20260507033412 | 58 | 89 | 0.0 | 0.0 | 0.04 | 0.98 | 0.01 | 96 | 1009.1 |
| 20260507032814 | 58 | 98 | 0.0 | 0.0 | 0.04 | 0.98 | 0.01 | 96 | 1009.1 |
| 20260507032338 | 58 | 98 | 0.0 | 0.0 | 0.04 | 0.98 | 0.01 | 96 | 1009.1 |
| 20260507031819 | 58 | 98 | 0.0 | 0.0 | 0.04 | 0.98 | 0.01 | 96 | 1009.0 |
| 20260507031323 | 58 | 98 | 0.0 | 0.0 | 0.04 | 0.98 | 0.01 | 96 | 1009.0 |
| 20260507030829 | 58 | 98 | 0.0 | 0.0 | 0.04 | 0.98 | 0.01 | 96 | 1009.0 |
| 20260507025859 | 58 | 98 | 0.0 | 0.0 | 0.04 | 0.98 | 0.01 | 96 | 1009.0 |
| 20260507025318 | 58 | 102 | 0.0 | 0.0 | 0.00 | 0.94 | 0.00 | 96 | 1009.0 |
| 20260507024841 | 58 | 105 | 0.0 | 0.0 | 0.00 | 0.94 | 0.00 | 95 | 1009.1 |
| 20260507024323 | 58 | 105 | 0.0 | 0.0 | 0.00 | 0.94 | 0.00 | 95 | 1009.1 |
| 20260507023904 | 58 | 105 | 0.0 | 0.0 | 0.00 | 0.94 | 0.00 | 95 | 1009.1 |
| 20260507023323 | 58 | 105 | 0.0 | 0.0 | 0.00 | 0.94 | 0.00 | 95 | 1009.2 |
| 20260507022823 | 58 | 106 | 0.0 | 0.0 | 0.00 | 0.94 | 0.00 | 95 | 1009.2 |
| 20260507022408 | 58 | 107 | 0.0 | 0.0 | 0.00 | 0.94 | 0.00 | 95 | 1009.2 |
| 20260507021848 | 58 | 117 | 0.0 | 0.0 | 0.00 | 0.94 | 0.00 | 95 | 1009.0 |
| 20260507021350 | 57 | 117 | 0.0 | 0.0 | 0.00 | 0.94 | 0.00 | 96 | 1009.0 |
| 20260507020910 | 57 | 117 | 0.0 | 0.0 | 0.00 | 0.94 | 0.00 | 96 | 1009.0 |
| 20260507020335 | 57 | 117 | 0.0 | 0.0 | 0.00 | 0.94 | 0.00 | 95 | 1009.0 |
| 20260507015815 | 57 | 117 | 0.0 | 0.0 | 0.00 | 0.94 | 0.00 | 95 | 1009.0 |
| 20260507015436 | 57 | 117 | 0.0 | 0.0 | 0.00 | 0.94 | 0.00 | 95 | 1009.0 |
| 20260507014814 | 57 | 117 | 0.0 | 0.0 | 0.00 | 0.94 | 0.00 | 95 | 1009.0 |
| 20260507014317 | 57 | 117 | 0.0 | 0.0 | 0.00 | 0.94 | 0.00 | 95 | 1009.0 |
| 20260507013329 | 57 | 117 | 0.0 | 0.0 | 0.00 | 0.94 | 0.00 | 95 | 1009.0 |
| 20260507012830 | 57 | 117 | 0.0 | 0.0 | 0.00 | 0.94 | 0.00 | 95 | 1009.0 |
| 20260507012352 | 57 | 117 | 0.0 | 0.0 | 0.00 | 0.94 | 0.00 | 95 | 1009.0 |
| 20260507011914 | 57 | 117 | 0.0 | 0.0 | 0.00 | 0.94 | 0.00 | 95 | 1009.0 |
| 20260507011353 | 57 | 117 | 0.0 | 0.0 | 0.00 | 0.94 | 0.00 | 95 | 1009.0 |
| 20260507010933 | 57 | 117 | 0.0 | 0.0 | 0.00 | 0.94 | 0.00 | 95 | 1009.0 |
| 20260507005907 | 57 | 117 | 0.0 | 0.0 | 0.00 | 0.94 | 0.00 | 95 | 1009.0 |
| 20260507005326 | 57 | 117 | 0.0 | 0.0 | 0.00 | 0.94 | 0.00 | 95 | 1009.0 |
| 20260507004853 | 57 | 117 | 0.0 | 0.0 | 0.00 | 0.94 | 0.00 | 95 | 1009.0 |
| 20260507004313 | 57 | 117 | 0.0 | 0.0 | 0.00 | 0.94 | 0.00 | 95 | 1009.0 |
| 20260507003904 | 57 | 117 | 0.0 | 0.0 | 0.00 | 0.94 | 0.00 | 95 | 1009.0 |
| 20260507003332 | 57 | 117 | 0.0 | 0.0 | 0.00 | 0.94 | 0.00 | 95 | 1008.9 |
| 20260507002849 | 57 | 117 | 0.0 | 0.0 | 0.00 | 0.94 | 0.00 | 95 | 1008.9 |
| 20260507002328 | 57 | 117 | 0.0 | 0.0 | 0.00 | 0.94 | 0.00 | 95 | 1008.9 |
| 20260507001829 | 57 | 117 | 0.0 | 0.0 | 0.00 | 0.94 | 0.00 | 95 | 1009.0 |
| 20260507001310 | 58 | 117 | 0.0 | 0.0 | 0.00 | 0.94 | 0.00 | 95 | 1009.0 |
| 20260507000838 | 58 | 117 | 0.0 | 0.0 | 0.00 | 0.94 | 0.00 | 95 | 1009.0 |
| 20260507000343 | 58 | 117 | 0.0 | 0.0 | 0.00 | 0.94 | 0.00 | 95 | 1009.0 |
| 20260506235824 | 58 | 117 | 0.0 | 0.0 | 0.00 | 0.94 | 0.00 | 95 | 1009.0 |
| 20260506235327 | 58 | 117 | 0.0 | 0.0 | 0.00 | 0.94 | 0.00 | 95 | 1009.0 |
| 20260506234814 | 58 | 117 | 0.0 | 0.0 | 0.00 | 0.94 | 0.00 | 95 | 1009.0 |
| 20260506234338 | 58 | 117 | 0.0 | 0.0 | 0.00 | 0.94 | 0.00 | 95 | 1009.0 |
| 20260506233346 | 58 | 117 | 0.0 | 0.0 | 0.00 | 0.94 | 0.00 | 95 | 1009.0 |
| 20260506232831 | 58 | 117 | 0.0 | 0.0 | 0.00 | 0.94 | 0.00 | 95 | 1009.0 |
| 20260506232315 | 58 | 117 | 0.0 | 0.0 | 0.00 | 0.94 | 0.00 | 95 | 1009.0 |
| 20260506231856 | 58 | 117 | 0.0 | 0.0 | 0.00 | 0.94 | 0.00 | 95 | 1008.8 |
| 20260506231355 | 58 | 117 | 0.0 | 0.0 | 0.00 | 0.94 | 0.00 | 95 | 1008.8 |
| 20260506230900 | 58 | 117 | 0.0 | 0.0 | 0.00 | 0.94 | 0.00 | 95 | 1008.8 |
| 20260506230417 | 58 | 117 | 0.0 | 0.0 | 0.00 | 0.94 | 0.00 | 95 | 1009.0 |
| 20260506225820 | 58 | 117 | 0.0 | 0.0 | 0.00 | 0.94 | 0.00 | 95 | 1009.0 |
| 20260506225326 | 58 | 117 | 0.0 | 0.0 | 0.00 | 0.94 | 0.00 | 95 | 1009.0 |
| 20260506224810 | 58 | 117 | 0.0 | 0.0 | 0.00 | 0.94 | 0.00 | 95 | 1009.0 |
| 20260506224316 | 58 | 117 | 0.0 | 0.0 | 0.00 | 0.94 | 0.00 | 95 | 1009.0 |
| 20260506223817 | 58 | 117 | 0.0 | 0.0 | 0.00 | 0.94 | 0.00 | 95 | 1009.0 |
| 20260506223341 | 59 | 117 | 0.0 | 0.0 | 0.00 | 0.94 | 0.00 | 95 | 1009.0 |
| 20260506222853 | 59 | 117 | 0.0 | 0.0 | 0.00 | 0.94 | 0.00 | 95 | 1009.0 |
| 20260506222333 | 59 | 117 | 0.0 | 0.0 | 0.00 | 0.94 | 0.00 | 95 | 1009.0 |
| 20260506221813 | 59 | 117 | 0.0 | 0.0 | 0.00 | 0.94 | 0.00 | 95 | 1008.9 |
| 20260506221317 | 59 | 117 | 0.0 | 0.0 | 0.00 | 0.94 | 0.00 | 95 | 1008.9 |
| 20260506220842 | 59 | 117 | 0.0 | 0.0 | 0.00 | 0.94 | 0.00 | 95 | 1008.9 |
| 20260506220401 | 59 | 117 | 0.0 | 0.0 | 0.00 | 0.94 | 0.19 | 95 | 1008.9 |
| 20260506215823 | 59 | 117 | 0.0 | 0.0 | 0.00 | 0.94 | 0.19 | 95 | 1008.9 |
| 20260506215324 | 59 | 117 | 0.0 | 0.0 | 0.00 | 0.94 | 0.19 | 95 | 1008.9 |
| 20260506214824 | 59 | 117 | 0.0 | 0.0 | 0.00 | 0.94 | 0.19 | 95 | 1008.7 |
| 20260506214405 | 59 | 117 | 0.0 | 0.0 | 0.00 | 0.94 | 0.19 | 95 | 1008.7 |
| 20260506213836 | 59 | 117 | 0.0 | 0.0 | 0.00 | 0.94 | 0.19 | 94 | 1008.7 |
| 20260506213334 | 59 | 117 | 0.0 | 0.0 | 0.00 | 0.94 | 0.19 | 94 | 1008.9 |
| 20260506212845 | 59 | 117 | 0.0 | 0.0 | 0.00 | 0.94 | 0.19 | 94 | 1008.9 |
| 20260506211833 | 60 | 117 | 0.0 | 0.0 | 0.00 | 0.94 | 0.19 | 95 | 1008.9 |
| 20260506211334 | 60 | 117 | 0.0 | 0.0 | 0.00 | 0.94 | 0.19 | 94 | 1008.9 |
| 20260506210816 | 60 | 118 | 0.0 | 0.0 | 0.00 | 0.94 | 0.19 | 94 | 1008.9 |
| 20260506210319 | 60 | 121 | 0.0 | 0.0 | 0.00 | 0.94 | 0.19 | 94 | 1008.7 |
| 20260506205818 | 60 | 121 | 0.0 | 0.0 | 0.00 | 0.94 | 0.19 | 94 | 1008.7 |
| 20260506205356 | 60 | 121 | 0.0 | 0.0 | 0.00 | 0.94 | 0.19 | 94 | 1008.7 |
| 20260506204359 | 60 | 121 | 0.0 | 0.0 | 0.00 | 0.94 | 0.19 | 94 | 1008.8 |
| 20260506203853 | 60 | 121 | 0.0 | 0.0 | 0.00 | 0.94 | 0.19 | 94 | 1008.8 |
| 20260506203351 | 60 | 121 | 0.0 | 0.0 | 0.00 | 0.94 | 0.19 | 94 | 1008.8 |
| 20260506202910 | 60 | 121 | 0.0 | 0.0 | 0.00 | 0.94 | 0.19 | 94 | 1008.8 |
| 20260506202408 | 60 | 123 | 0.0 | 0.0 | 0.00 | 0.94 | 0.19 | 94 | 1008.8 |
| 20260506201826 | 60 | 123 | 0.0 | 0.0 | 0.00 | 0.94 | 0.19 | 94 | 1008.5 |
| 20260506201319 | 61 | 123 | 0.0 | 0.0 | 0.00 | 0.94 | 0.19 | 94 | 1008.5 |
| 20260506200826 | 61 | 123 | 0.0 | 0.0 | 0.00 | 0.94 | 0.19 | 94 | 1008.5 |
| 20260506200318 | 61 | 123 | 0.0 | 0.0 | 0.00 | 0.94 | 0.19 | 94 | 1008.5 |
| 20260506195827 | 61 | 123 | 0.0 | 0.0 | 0.00 | 0.94 | 0.19 | 94 | 1008.5 |
| 20260506195314 | 61 | 123 | 0.0 | 0.0 | 0.00 | 0.94 | 0.19 | 94 | 1008.5 |
| 20260506194817 | 61 | 123 | 0.0 | 0.0 | 0.00 | 0.94 | 0.19 | 94 | 1008.4 |
| 20260506194321 | 61 | 123 | 0.0 | 0.0 | 0.00 | 0.94 | 0.19 | 94 | 1008.4 |
| 20260506193927 | 61 | 123 | 0.0 | 0.0 | 0.00 | 0.94 | 0.19 | 93 | 1008.4 |
| 20260506193844 | 61 | 123 | 0.0 | 0.0 | 0.00 | 0.94 | 0.19 | 93 | 1008.4 |
| 20260506193334 | 61 | 123 | 0.0 | 0.0 | 0.00 | 0.94 | 0.19 | 94 | 1008.2 |
| 20260506192922 | 61 | 123 | 0.0 | 0.0 | 0.00 | 0.94 | 0.19 | 94 | 1008.2 |
| 20260506192329 | 61 | 123 | 0.0 | 0.0 | 0.00 | 0.94 | 0.19 | 93 | 1008.2 |
| 20260506191819 | 61 | 123 | 0.0 | 0.0 | 0.00 | 0.94 | 0.19 | 93 | 1008.1 |
| 20260506191323 | 61 | 126 | 0.0 | 0.0 | 0.00 | 0.94 | 0.19 | 93 | 1008.1 |
| 20260506190925 | 61 | 136 | 0.0 | 0.0 | 0.00 | 0.94 | 0.19 | 93 | 1008.1 |
| 20260506190402 | 61 | 137 | 0.0 | 0.0 | 0.00 | 0.94 | 0.19 | 93 | 1008.0 |